sat.trackr.live / text

‹ back to catalog

STARLINK-3148

NORAD 49736 · 2021-115N

PAYLOAD ACTIVE UNKNOWN

§ Identity

Operator
Country
US
Launch date
2021-12-02
Launch site
AFETR
Launch vehicle
Mass (kg)
RCS (m²)

Purposes: comms

External: N2YO · Heavens-Above · Gunter

§ Orbital elements

Epoch: 2026-05-24T18:34:26.245632Z

Period
95.44 min
Inclination
53.2139°
Eccentricity
0.0001177
Mean motion
15.08838971 rev/d
Perigee alt
538.9 km
Apogee alt
540.6 km
Semi-major
6,917.9 km
B*
1.7669e-5
RAAN
167.4506°
Arg perigee
80.9750°
Mean anomaly
279.1375°
Rev number
24,702

§ Raw data

STARLINK-31481 49736U 21115N   26144.77391488 -.00000007  00000+0  17669-4 0  99932 49736  53.2139 167.4506 0001177  80.9750 279.1375 15.08838971247027

JSON: /api/v1/satellites/49736 · /tle

For live sub-satellite position, see the globe view (requires WebGL).

§ Visibility from observer

Set your observer location to see the next 7 days of passes ≥ 10°. The values pass through the URL so the page stays shareable.

No JS? Fill the form by hand. The geolocation button needs JavaScript.